Погода в Александровке

Россия / Челябинская область     55°28′41″N   59°49′50″E
темп.,
°C
ветер,
м/с
пор.,
м/с
влажн.,
%
обл.,
%
осадки,
мм/ч
давл.,
гПа
погр.,
м
12 мая, ср
ср1223:00+12ююв11470 0.0 102810
02:00+10ю11490 0.0 102810
05:00+9юз11520 0.0 102910
08:00+16з11405 0.0 1029152
11:00+21сз23315 0.0 10281086
14:00+23сз33305 0.0 10272330
17:00+23зсз34323 0.0 10272263
20:00+18зсз22555 0.0 102731
13 мая, чт
чт1323:00+14с11644 0.0 102811
02:00+12с005976 0.0 102810
05:00+11юз116468 0.0 102910
08:00+16з1151100 0.0 1029170
11:00+21сз23365 0.0 10281202
14:00+24сз33325 0.0 10271792
17:00+24сз33325 0.0 10261955
20:00+19зсз11535 0.0 102611
14 мая, пт
пт1423:00+15ю00640 0.0 102711
02:00+14ююз116846 0.0 102811
05:00+13ююз11690 0.0 102810
08:00+19юз11525 0.0 1028182
11:00+24зсз23325 0.0 10271537
14:00+26з24265 0.0 10252724
17:00+26зсз44274 0.0 10252247
20:00+21зсз11495 0.0 102511
15 мая, сб
сб1523:00+16зюз116281 0.0 102612
02:00+14юз2267100 0.0 102620
05:00+13юз227051 0.0 102622
08:00+18юз235996 0.3 1026212
11:00+24зюз35365 0.5 10241142
14:00+26з4629100 0.0 10232009
17:00+25з453188 0.0 10231879
20:00+21зюз23495 0.0 102253
16 мая, вс
вс1623:00+16зюз22613 0.0 102217
02:00+14юз22700 0.0 102235
05:00+13юз22743 0.0 102323
08:00+19зюз23534 0.0 1023228
11:00+25з34324 0.0 10221240
14:00+27з34255 0.0 10212277
17:00+27з35280 0.0 10202253
20:00+22зсз11473 0.0 102011